This demonstration page uses our WeatherBlox Daily Observations layout. Learn more.

36.17497, -115.13722

Hourly Observations for February 28, 2018

Temp ( °F °C ) Dew Point ( °F °C ) Humidity (%) Winds ( mph kmh ) Pressure ( in mb ) Visibility ( mi km ) Precip ( " mm )
12:53 am 00:53 Cloudy 42 5.6 33 0.6 71 71 NNW 3 6 30.04 1017 10 16.0934 0 0
1:53 am 01:53 Cloudy 41 5 32 0 70 70 Calm 30.05 1018 10 16.0934 0 0
2:53 am 02:53 Cloudy 42 5.6 32 0 68 68 NNW 8 13 30.03 1017 10 16.0934 0 0
3:53 am 03:53 Clear 41 5 32 0 70 70 NNW 8 13 30.04 1017 10 16.0934 0 0
4:53 am 04:53 Clear 42 5.6 31 -0.6 65 65 WNW 12 19 30.07 1018 10 16.0934 0 0
5:53 am 05:53 Clear 41 5 31 -0.6 67 67 NNW 14 22 30.08 1019 10 16.0934 0 0
6:53 am 06:53 Sunny 41 5 31 -0.6 67 67 WNW 7 11 30.1 1019 10 16.0934 0 0
7:53 am 07:53 Sunny 44 6.7 30 -1.1 58 58 NW 9 15 30.13 1020 10 16.0934 0 0
8:53 am 08:53 Sunny 48 8.9 29 -1.7 48 48 NNE 7 11 30.14 1021 10 16.0934 0 0
9:53 am 09:53 Sunny 51 10.6 28 -2.2 41 41 NNW 7 11 30.15 1021 10 16.0934 0 0
10:53 am 10:53 Sunny 52 11.1 29 -1.7 41 41 VRB 3 6 30.15 1021 10 16.0934 0 0
11:53 am 11:53 Sunny 55 12.8 28 -2.2 35 35 undefined N/A 30.14 1021 10 16.0934 0 0
12:53 pm 12:53 Sunny 55 12.8 27 -2.8 34 34 VRB 3 6 30.11 1020 10 16.0934 0 0
1:53 pm 13:53 Sunny 57 13.9 27 -2.8 32 32 VRB 5 7 30.1 1019 10 16.0934 0 0
2:53 pm 14:53 Partly Cloudy 60 15.6 25 -3.9 26 26 Calm 30.09 1019 10 16.0934 0 0
3:53 pm 15:53 Sunny 59 15 25 -3.9 27 27 E 7 11 30.08 1019 10 16.0934 0 0
4:53 pm 16:53 Sunny 60 15.6 23 -5 24 24 ENE 6 9 30.07 1018 10 16.0934 0 0
5:53 pm 17:53 Clear 57 13.9 23 -5 27 27 SW 13 20 30.08 1019 10 16.0934 0 0
6:53 pm 18:53 Clear 55 12.8 22 -5.6 28 28 SSW 10 17 30.11 1020 10 16.0934 0 0
7:53 pm 19:53 Clear 53 11.7 25 -3.9 34 34 SSW 12 19 30.11 1020 10 16.0934 0 0
8:53 pm 20:53 Clear 51 10.6 25 -3.9 36 36 S 10 17 30.12 1020 10 16.0934 0 0
9:53 pm 21:53 Clear 49 9.4 26 -3.3 41 41 SSE 9 15 30.13 1020 10 16.0934 0 0
10:53 pm 22:53 Clear 50 10 26 -3.3 39 39 S 12 19 30.13 1020 10 16.0934 0 0
11:53 pm 23:53 Clear 50 10 25 -3.9 38 38 SSW 9 15 30.13 1020 10 16.0934 0 0

Powered by AerisWeather